This is the latest recevied weather packets stored in our database for station/object N3NDE. If no packets are shown the sender has not sent any weather packets the latest 1 day(s).
| Time | Temp. | Humidity | Pressure | Rain* | Wind** | Luminosity | Snow |
|---|---|---|---|---|---|---|---|
| 1778037545 | 5° C | 89% | 1012.8 hPa | 0 mm | 0.45 m/s, 59° | 0 W/m² | - |
| 1778037242 | 5° C | 88% | 1012.5 hPa | 0 mm | 0 m/s | 0 W/m² | - |
| 1778036940 | 5.56° C | 87% | 1012.2 hPa | 0 mm | 0 m/s | 0 W/m² | - |
| 1778036638 | 6.11° C | 86% | 1012.3 hPa | 0 mm | 0.45 m/s, 64° | 0 W/m² | - |
| 1778036334 | 6.11° C | 87% | 1012.3 hPa | 0 mm | 0 m/s | 0 W/m² | - |
| 1778036031 | 6.11° C | 86% | 1012.2 hPa | 0 mm | 0 m/s | 0 W/m² | - |
| 1778035728 | 6.11° C | 86% | 1011.9 hPa | 0 mm | 0 m/s | 0 W/m² | - |
| 1778035425 | 6.67° C | 86% | 1012.1 hPa | 0 mm | 0 m/s | 0 W/m² | - |
| 1778035121 | 6.67° C | 85% | 1012.2 hPa | 0 mm | 0 m/s | 1 W/m² | - |
| 1778034818 | 6.67° C | 84% | 1012.1 hPa | 0 mm | 0 m/s | 1 W/m² | - |
| 1778034514 | 7.22° C | 82% | 1011.8 hPa | 0 mm | 0 m/s | 3 W/m² | - |
| 1778034212 | 7.22° C | 80% | 1011.8 hPa | 0 mm | 0 m/s | 5 W/m² | - |
| 1778033910 | 7.78° C | 79% | 1011.8 hPa | 0 mm | 0 m/s | 7 W/m² | - |
| 1778033607 | 8.33° C | 78% | 1011.7 hPa | 0 mm | 0 m/s | 10 W/m² | - |
| 1778033303 | 8.89° C | 75% | 1011.6 hPa | 0 mm | 0 m/s | 14 W/m² | - |
| 1778033001 | 10° C | 72% | 1011.7 hPa | 0 mm | 0.45 m/s, 54° | 19 W/m² | - |
| 1778032699 | 10.56° C | 70% | 1011.8 hPa | 0 mm | 0.45 m/s, 48° | 27 W/m² | - |
| 1778032396 | 10.56° C | 68% | 1011.3 hPa | 0 mm | 0 m/s | 33 W/m² | - |
| 1778032092 | 10.56° C | 67% | 1011.7 hPa | 0 mm | 0 m/s | 41 W/m² | - |
| 1778031789 | 10.56° C | 66% | 1011.7 hPa | 0 mm | 0 m/s | 50 W/m² | - |
| 1778031486 | 10.56° C | 66% | 1011.8 hPa | 0 mm | 0.45 m/s, 52° | 51 W/m² | - |
| 1778031184 | 10.56° C | 68% | 1011.8 hPa | 0 mm | 0 m/s | 62 W/m² | - |
| 1778030880 | 10° C | 71% | 1011.6 hPa | 0 mm | 0.45 m/s, 64° | 68 W/m² | - |
| 1778030577 | 10° C | 70% | 1011.7 hPa | 0 mm | 0.45 m/s, 51° | 79 W/m² | - |
| 1778030274 | 10° C | 70% | 1011.7 hPa | 0 mm | 0.89 m/s, 28° | 83 W/m² | - |
* Rain latest hour (hover to see other rain measurements)
** Current wind speed in m/s (hover to see current wind gust speed)